Location: Bruderhein
(53.8035°N, 112.9265°W)
Time: 13:05:06
(UTC+00:00)

First-Move - Visible Passes

Search period start: 27 March 2023 00:00
Search period end: 06 April 2023 00:00
Orbit: 564 x 644 km, 97.7° (Epoch: 27 March)

Date Brightness Start Highest point End Pass type
(mag) Time Alt. Az. Time Alt. Az. Time Alt. Az.
27 Mar ? 11:00:23 10° NNE 11:04:29 48° E 11:07:36 16° S visible
27 Mar ? 12:36:39 10° N 12:40:03 24° WNW 12:43:23 10° WSW visible
28 Mar ? 11:12:37 10° NNE 11:16:48 64° ESE 11:20:09 15° S visible
29 Mar ? 09:51:09 10° ENE 09:52:30 11° E 09:53:51 10° ESE visible
29 Mar ? 11:24:52 10° NNE 11:29:05 83° ESE 11:32:39 13° SSW visible
30 Mar ? 10:02:34 10° NE 10:04:55 15° E 10:07:14 10° ESE visible
30 Mar ? 11:37:08 10° NNE 11:41:18 76° WNW 11:45:09 11° SSW visible
31 Mar ? 10:14:20 10° NE 10:17:17 19° E 10:20:11 10° SE visible
31 Mar ? 11:49:24 10° N 11:53:30 58° WNW 11:57:29 10° SSW visible
01 Apr ? 10:26:15 10° NE 10:29:37 24° E 10:32:54 10° SSE visible
01 Apr ? 12:01:41 10° N 12:05:39 45° WNW 12:09:32 10° SW visible
02 Apr ? 10:38:14 10° NNE 10:41:54 30° E 10:45:29 10° SSE visible
02 Apr ? 12:13:59 10° N 12:17:46 35° WNW 12:21:28 10° SW visible
03 Apr ? 10:50:16 10° NNE 10:54:09 39° E 10:57:56 10° SSE visible
04 Apr ? 11:02:19 10° NNE 11:06:20 50° E 11:10:16 10° S visible
05 Apr ? 11:14:25 10° NNE 11:18:30 66° ESE 11:22:30 10° S visible
